Погода в Новосимбирке

Россия / Оренбургская область     51°46′20″N   57°52′21″E
темп.,
°C
ветер,
м/с
пор.,
м/с
влажн.,
%
обл.,
%
осадки,
мм/ч
давл.,
гПа
погр.,
м
21 апреля, ср
ср2123:000в36550 0.0 1033114
02:00−1в23550 0.0 103364
05:00−1юв22530 0.0 103419
08:00+2вюв35432 0.0 1034277
11:00+6вюв563410 0.0 1034744
14:00+8юв563362 0.0 10331059
17:00+9юв6733100 0.0 10321048
20:00+6юв3648100 0.0 1033120
22 апреля, чт
чт2223:00+4юв3855100 0.0 1033152
02:00+3ююв3959100 0.0 1034176
05:00+3ююв3860100 0.0 1034194
08:00+4ююв31056100 0.0 1035390
11:00+7ююв5846100 0.1 1035672
14:00+9ююв6841100 0.1 10341050
17:00+9ююв6944100 0.1 10331068
20:00+7ююв51156100 0.0 1033585
23 апреля, пт
пт2323:00+7ююв51262100 0.0 1032537
02:00+6ююв4876100 0.2 1032491
05:00+5вюв4973100 0.2 1031226
08:00+7юв51166100 0.0 1030390
11:00+11ююв71047100 0.0 1029808
14:00+12ю7844100 0.0 10281445
17:00+7юв6782100 0.7 1029632
20:00+6вюв61287100 0.1 1028699
24 апреля, сб
сб2423:00+6в71284100 0.4 1026451
02:00+6вюв91673100 0.0 1023646
05:00+6вюв81566100 0.0 1020506
08:00+6юв61175100 0.1 1019845
11:00+5вюв91477100 1.4 1017779
14:00+7юв8147596 1.9 10161060
17:00+9юв5872100 2.4 1012677
20:00+7ююз3795100 1.4 1012515
25 апреля, вс
вс2523:00+5зюз71393100 1.8 1014670
02:00+5зюз71297100 0.0 1015880
05:00+4з8139096 0.1 1016675
08:00+5зюз6128797 0.0 1018539
11:00+8юз6118296 0.1 1018517
14:00+12зюз81272100 0.4 10161477
17:00+11з913635 1.0 10181302
20:00+8з4963100 0.0 1020214